Regional Weather Roundup
Issued by NWS Binghamton, NY

Home | Current Version | Previous Version | Text Only | Print | Product List | Glossary On
Versions: 1 2 3 4 5 6 7 8 9 10 11 12 13 14 15 16 17 18 19 20 21 22 23 24 25 26 27 28 29 30 31 32 33 34 35 36 37 38 39 40 41 42 43 44 45 46 47 48 49 50
000
ASUS41 KBGM 031410
RWRBGM

REGIONAL WEATHER ROUNDUP
NATIONAL WEATHER SERVICE BINGHAMTON NY
1000 AM EDT TUE MAY 03 2016

Note: "fair" indicates few or no clouds below 12,000 feet with no
significant weather and/or obstructions to visibility.

* = Station(s) that does not report precipitation, such as rain,
snow, etc, also no thunder or fog.

NYZ009-015>018-022>025-036-037-044>046-055>057-062-031500
...Central New York...

CITY           SKY/WX    TMP DP  RH WIND       PRES   REMARKS
Binghamton     CLOUDY    44  40  85 NE8       29.86F
Cortland       CLOUDY    48  41  76 NE3       29.89F
Dansville      CLOUDY    45  41  86 CALM      29.91F
Elmira         CLOUDY    48  41  76 NE6       29.88F
Ithaca         CLOUDY    44  42  93 NW5       29.90F FOG
Hamilton       CLOUDY    46  39  76 NW3       29.90S
Hornell        CLOUDY    45  41  87 NE7       29.92F
Monticello     CLOUDY    46  45  93 E8        29.87F
Norwich        CLOUDY    46  39  76 N5        29.90S
Penn Yan       CLOUDY    44  43  96 CALM      29.91F FOG
Rome           CLOUDY    47  43  86 SW5       29.92F
Sidney         CLOUDY    50  46  87 CALM      29.88F
Syracuse       CLOUDY    46  43  89 VRB3      29.92F
$$

PAZ038>040-043-044-047-048-072-031500
...Northeast Pennsylvania...

CITY           SKY/WX    TMP DP  RH WIND       PRES   REMARKS
Hazleton       DRIZZLE   48  48 100 CALM      29.85F
Scranton       LGT RAIN  48  46  93 N5        29.86S FOG
$$
&&
KEY
WCI = Wind Chill Index
VSB = Visibility
HX  = Heat Index
$$



USA.gov is the U.S. government's official web portal to all federal, state and local government web resources and services.